Temperature
14 14 15 15 19 20 20 20 20 19 19 19 18 19 20 20 21 19 15 15 16 16 15 15 15 15 15 15 15 15 15 15 15 15 15 15 15 15 15 15 15 14 15 15 15 15 15 15 15
14 14 14 16 19 20 20 20 19 19 18 17 17 18 19 18 16 15 15 15 15 15 15 15 15 15 15 15 15 15 15 15 15 15 15 15 15 15 15 15 14 14 15 15 15 15 15 15 15
13 14 15 18 19 20 20 19 19 18 17 17 17 17 17 16 14 14 14 15 15 15 15 15 15 15 15 15 15 15 15 15 15 15 15 15 15 15 15 15 14 14 14 14 14 14 14 14 14
13 14 15 18 18 18 19 18 17 18 17 16 17 17 14 13 13 13 14 14 14 14 14 14 15 15 15 15 15 15 15 15 15 15 15 15 15 14 14 14 14 14 14 14 14 14 14 14 14
13 15 17 17 17 18 17 16 16 17 17 16 16 17 14 12 13 13 14 14 14 14 14 14 14 14 14 14 14 14 14 15 15 15 15 15 14 14 14 14 14 14 14 14 14 14 14 14 14
13 15 17 17 17 17 16 15 16 17 16 15 15 16 14 12 13 13 13 13 13 14 13 13 14 14 14 14 14 14 14 14 14 14 14 14 14 14 14 14 14 14 14 14 14 14 14 14 14
14 15 16 17 17 16 16 14 15 16 15 14 14 15 13 12 12 13 13 13 13 13 13 13 13 14 14 14 14 14 14 14 14 14 14 14 14 14 14 14 14 14 14 14 14 14 14 14 13
12 15 15 16 16 16 14 13 13 14 14 12 12 13 12 10 11 12 12 12 12 12 13 13 13 13 13 13 13 13 13 13 14 14 14 14 13 13 14 14 14 14 13 13 14 13 13 13 13
11 14 14 15 15 15 13 13 12 11 12 10 10 10 9 10 11 11 12 12 12 12 12 12 12 13 13 13 13 13 13 13 13 13 13 13 13 13 13 13 13 13 13 13 13 13 13 13 13
11 13 13 13 13 13 12 12 11 12 12 10 9 9 9 9 10 11 11 11 12 12 12 12 12 12 12 12 12 12 12 13 13 13 13 13 13 13 13 13 13 13 13 13 13 13 13 12 12
10 11 12 11 11 11 11 11 10 12 11 10 9 8 8 9 9 10 10 10 10 11 11 11 11 12 12 12 12 12 12 12 12 12 12 12 12 12 12 12 12 12 12 12 12 12 12 12 12
10 10 10 10 9 9 10 10 9 9 9 8 7 7 7 8 8 8 8 9 9 10 10 10 11 11 11 11 11 12 12 12 12 12 12 12 12 12 12 12 12 12 12 12 12 12 12 12 12
9 9 8 7 8 8 8 8 8 7 6 6 6 6 6 7 7 7 7 8 8 9 9 10 10 10 11 11 11 11 11 11 11 11 11 11 12 12 11 11 12 12 11 12 12 12 12 11 11
8 8 8 7 8 8 8 7 7 6 6 6 6 6 6 6 6 6 7 7 8 8 8 9 9 10 10 10 11 11 11 11 11 11 11 11 11 11 11 11 11 11 11 11 11 11 11 11 11
7 8 8 8 8 8 8 8 7 5 5 5 5 5 5 5 5 5 6 6 7 7 8 8 9 9 9 10 10 10 10 10 10 11 11 11 11 11 11 11 11 11 11 11 11 11 11 11 11
8 9 9 8 8 8 9 8 6 5 5 5 4 4 4 4 4 5 5 5 6 6 7 7 8 8 9 9 9 9 10 10 10 10 10 10 10 11 11 11 11 11 11 11 11 11 10 10 10
8 8 8 8 7 7 8 7 5 4 4 4 4 3 3 3 4 4 4 5 5 6 6 7 7 8 8 8 9 9 9 9 9 10 10 10 10 10 10 10 10 10 10 10 10 10 10 10 10
7 8 7 8 7 7 7 6 5 3 3 3 3 2 2 2 2 3 4 4 5 5 6 6 7 7 7 7 8 8 8 9 9 9 9 9 10 10 10 10 10 10 10 10 10 10 10 10 10
6 7 7 7 6 6 6 5 4 3 3 2 2 1 1 1 1 2 3 3 4 4 5 5 6 6 7 7 7 8 8 8 8 9 9 9 9 9 9 9 9 9 9 10 10 9 9 9 9
6 6 6 6 6 6 5 5 4 3 2 1 1 0 0 0 1 1 2 2 3 4 4 5 5 6 6 6 6 7 7 7 8 8 8 8 9 9 9 9 9 9 9 9 9 9 9 9 9
5 6 5 5 5 5 5 5 4 3 1 0 -0 -0 -0 -0 -0 0 1 1 2 3 3 4 4 5 5 6 6 6 6 7 7 7 8 8 8 8 8 8 8 8 9 9 9 9 9 9 9
5 5 5 4 5 6 5 6 4 2 2 1 0 -1 -1 -1 -1 -0 -0 1 1 2 3 3 4 4 5 5 5 5 6 6 6 7 7 7 7 8 8 8 8 8 8 8 9 9 8 8 8
4 4 4 4 4 4 4 4 5 2 1 1 0 -1 -2 -2 -2 -1 -1 -0 0 1 2 3 3 3 4 4 4 5 5 5 6 6 6 7 7 7 7 7 8 7 8 8 8 8 8 8 8
3 4 4 4 4 4 3 4 4 2 1 0 -0 -1 -2 -2 -2 -2 -1 -1 -0 0 1 2 2 3 3 3 4 4 4 5 5 5 6 6 6 7 7 7 7 7 7 7 8 8 8 8 8
3 4 5 5 4 4 2 3 2 0 -1 -1 -2 -2 -3 -3 -3 -2 -2 -1 -1 -0 0 1 1 2 2 2 3 3 4 4 4 5 5 5 5 6 6 6 7 7 7 7 7 7 7 7 7
2 3 4 4 4 4 1 2 1 -1 -2 -3 -3 -3 -3 -3 -3 -3 -3 -2 -2 -1 -1 -0 1 1 1 2 2 2 3 3 3 4 4 4 5 5 5 6 6 6 6 6 6 6 7 7 7
1 2 1 2 2 2 2 1 -0 -1 -2 -3 -3 -3 -4 -4 -4 -3 -3 -3 -2 -2 -1 -1 -0 0 1 1 1 2 2 2 3 3 3 4 4 4 5 5 5 6 6 6 6 6 6 6 6
0 0 1 2 2 3 2 2 1 -1 -2 -2 -3 -4 -4 -4 -4 -4 -4 -3 -3 -2 -2 -2 -1 -1 -0 0 1 1 1 2 2 3 3 3 3 4 4 4 5 5 5 5 5 5 6 6 6
-1 -1 -0 1 1 2 2 2 -0 -1 -2 -3 -3 -4 -5 -5 -5 -4 -4 -4 -3 -3 -2 -2 -1 -1 -1 -0 0 0 1 1 1 2 2 3 3 3 3 4 4 4 4 5 5 5 5 5 6
-2 -2 -1 1 0 0 1 1 -2 -3 -3 -4 -4 -5 -5 -5 -5 -5 -4 -4 -4 -3 -3 -2 -2 -2 -1 -1 -1 -0 0 0 1 1 2 2 2 2 3 3 3 3 4 4 4 4 5 5 5
Wind_Speed
4 2 2 3 4 5 9 6 4 4 3 2 2 2 2 1 1 2 4 2 2 6 10 13 13 13 14 14 14 14 15 15 15 15 14 14 14 14 13 13 13 13 14 15 15 15 15 16 16
3 2 2 3 6 9 8 7 7 5 2 2 2 2 2 1 3 3 2 2 3 7 10 11 12 13 13 13 13 14 15 15 15 15 14 14 13 13 13 13 13 13 14 15 15 15 16 15 15
2 1 3 4 7 11 7 5 5 3 2 3 2 1 1 1 2 2 2 2 5 7 8 10 12 12 12 12 12 13 14 14 14 14 14 14 13 13 13 13 13 14 14 15 15 15 15 15 15
2 3 3 6 11 10 6 3 3 4 3 2 3 3 2 3 3 3 2 4 6 7 8 10 11 10 11 12 12 13 13 13 13 13 13 13 13 13 13 13 13 13 14 14 14 14 14 14 14
2 3 6 9 12 9 6 3 4 4 4 2 2 3 3 3 5 4 4 5 6 6 7 9 9 9 9 11 11 12 12 12 12 12 12 12 13 13 13 13 13 13 14 14 13 13 13 13 13
3 4 8 12 13 9 5 4 4 4 3 2 2 3 2 5 6 4 3 4 5 6 7 9 9 8 8 10 10 11 11 12 12 11 11 11 12 13 13 13 13 13 13 13 13 12 12 12 12
4 5 9 11 10 9 5 4 4 5 4 2 1 2 2 4 6 2 2 3 4 5 6 7 7 7 7 8 10 10 10 11 11 11 11 11 11 12 13 12 12 12 12 13 13 12 12 12 12
2 3 8 10 10 9 4 4 2 3 3 1 0 1 1 4 4 2 3 4 4 5 5 5 5 6 6 7 9 10 10 10 10 11 11 10 10 11 12 12 11 11 12 12 12 12 12 12 11
2 5 10 10 8 6 4 4 2 1 3 2 2 2 3 3 3 4 4 4 4 4 3 3 4 4 4 6 8 8 9 9 10 10 10 10 9 9 9 10 11 11 12 12 12 13 12 12 11
3 8 9 4 3 4 5 4 2 3 3 1 1 4 4 4 4 4 4 3 3 3 3 2 2 3 4 5 7 6 7 8 8 8 8 7 7 7 7 10 11 11 12 12 12 12 11 9 8
3 6 5 2 1 2 4 3 2 5 2 1 1 2 3 4 4 4 3 2 2 2 3 3 2 2 3 3 4 4 4 6 6 7 7 6 6 6 7 7 8 9 10 9 10 9 7 6 6
4 4 3 2 1 2 3 3 2 2 2 1 1 2 2 3 3 2 2 2 2 3 3 3 4 1 1 2 3 3 4 4 5 6 7 6 5 5 5 5 6 6 6 7 7 6 7 6 6
6 5 2 1 1 2 2 3 3 1 1 2 3 4 3 3 2 2 2 2 3 3 3 3 3 3 1 1 2 2 3 4 4 5 6 6 5 5 5 4 5 6 5 6 6 6 6 6 6
3 4 3 1 1 2 3 2 2 1 1 3 4 4 4 3 3 3 4 4 4 4 3 3 3 3 2 0 1 2 2 3 4 4 6 6 5 5 5 4 4 5 5 5 5 6 6 5 5
4 4 3 2 3 3 3 3 3 1 1 3 3 3 4 5 5 4 4 4 4 4 4 3 3 3 3 1 1 2 2 3 3 4 5 6 6 6 5 5 4 4 5 6 5 6 5 5 4
4 6 6 2 2 3 6 6 1 0 2 2 2 3 4 6 7 7 6 5 5 5 5 3 3 3 3 2 1 1 2 3 3 5 5 6 7 7 6 5 5 5 5 6 5 5 5 5 4
3 5 6 4 1 2 5 4 1 1 2 2 2 3 5 6 8 9 8 7 6 5 4 4 3 3 3 3 1 1 1 2 3 4 4 5 7 8 6 5 5 6 5 5 5 4 4 5 4
4 4 5 5 2 3 4 3 1 2 2 3 3 4 5 7 8 9 9 8 8 6 4 4 3 4 4 3 1 0 0 1 1 2 4 5 6 7 7 5 6 7 5 5 5 5 4 4 4
4 4 5 4 2 3 5 4 1 2 3 3 4 6 6 7 8 9 10 9 8 8 7 5 4 4 3 2 1 1 1 2 2 1 2 4 5 6 7 6 6 7 6 6 7 6 5 4 4
3 4 3 2 2 3 4 4 2 2 3 4 5 6 7 7 9 10 10 10 10 9 8 8 6 4 3 3 3 2 3 3 2 2 1 2 4 5 6 7 7 7 6 7 7 7 5 4 5
3 4 3 3 2 4 4 5 4 3 4 5 6 6 7 8 8 9 10 10 10 10 10 7 7 6 4 4 3 1 1 1 2 2 2 2 3 5 6 7 7 7 7 7 8 8 8 6 5
4 3 4 4 4 3 5 4 4 4 2 3 5 6 7 8 8 8 9 10 10 10 9 9 7 6 5 4 3 2 2 3 3 3 3 3 3 3 4 6 7 7 6 7 8 8 7 8 6
3 4 4 4 4 3 4 5 2 3 1 3 5 6 7 8 8 8 9 9 9 9 9 9 8 6 6 4 3 2 2 3 3 2 3 3 2 3 4 4 5 7 7 7 7 7 8 8 8
3 2 3 3 3 4 3 5 3 1 2 3 4 5 7 8 8 9 9 9 9 9 9 9 8 7 6 5 4 3 3 3 2 2 3 3 2 2 3 4 5 6 7 8 8 8 9 8 8
3 0 1 2 3 3 0 3 1 2 2 3 4 5 6 7 8 9 10 10 10 10 10 9 9 8 7 5 4 3 3 3 3 3 3 3 2 2 4 4 4 5 6 7 8 8 8 9 10
3 2 1 3 3 3 1 2 1 2 3 4 4 4 6 8 8 9 9 9 10 10 10 10 9 8 7 6 5 4 3 2 2 3 3 4 3 4 4 4 4 5 6 6 7 7 8 8 9
2 2 2 1 2 3 2 1 2 1 3 4 5 6 7 8 9 9 9 9 10 10 10 10 9 8 8 6 5 5 4 3 3 3 3 3 3 4 4 4 4 4 5 6 6 6 7 8 8
4 1 1 1 2 3 4 4 2 1 3 5 6 7 8 9 9 10 9 9 9 9 9 9 9 8 8 7 6 4 4 4 3 3 3 4 4 4 4 4 4 4 4 5 6 7 7 8 8
3 2 1 1 2 3 3 2 1 1 2 4 6 7 8 8 9 9 9 9 9 9 9 9 9 9 8 7 6 6 5 4 4 3 4 4 4 4 4 4 4 4 5 5 5 6 7 8 8
1 1 1 2 2 2 3 3 2 0 2 4 6 7 8 8 9 9 9 9 9 9 9 9 9 9 8 7 6 6 5 5 4 4 4 4 4 5 5 5 4 5 5 5 6 7 7 7 8
Wind_Direction
321 314 251 211 203 213 225 213 210 185 187 190 177 192 185 186 219 75 37 92 125 149 157 155 147 146 145 143 141 139 137 135 134 131 129 127 124 122 118 115 112 110 108 108 107 104 103 103 101
306 271 210 206 217 218 219 212 209 207 171 152 179 190 174 165 25 41 48 89 136 144 150 149 144 143 140 140 142 142 140 139 137 136 134 132 128 124 120 115 111 110 108 107 107 105 103 103 103
259 268 212 198 217 224 213 188 204 196 176 178 168 147 209 43 37 23 25 137 137 132 140 137 136 140 140 140 140 142 143 142 140 139 138 136 133 129 124 117 112 111 109 108 108 107 105 103 102
217 186 199 215 217 223 221 170 173 175 159 156 168 136 116 51 14 14 81 134 138 134 131 128 128 132 138 139 139 139 139 140 140 141 140 139 137 132 127 121 116 115 113 112 111 111 109 107 105
220 202 200 216 225 217 214 206 192 191 174 147 164 154 127 62 25 46 112 131 136 137 132 129 120 127 132 134 137 138 139 138 136 140 143 142 139 135 130 124 121 120 119 117 115 113 113 111 108
191 206 211 220 219 210 208 213 206 202 191 169 170 165 133 56 31 42 111 131 133 134 129 130 126 121 130 136 132 136 136 138 139 136 136 138 139 136 132 128 126 125 125 123 122 119 117 113 110
212 205 220 222 219 214 205 196 209 211 206 213 226 178 148 38 18 35 102 120 118 116 119 124 136 136 128 132 136 133 134 132 133 134 133 130 131 136 134 131 130 130 130 127 125 124 121 115 111
237 208 219 222 220 217 191 182 199 212 205 54 139 182 156 354 2 56 90 95 106 101 106 116 127 137 146 144 133 134 129 131 132 128 124 124 127 133 134 134 133 135 133 130 127 125 120 115 112
232 218 221 218 215 204 173 182 182 142 150 97 71 42 27 21 55 75 78 69 65 72 76 106 121 127 139 150 140 136 135 132 134 133 127 133 142 142 143 138 132 136 135 132 129 127 121 117 112
213 219 223 219 212 188 169 180 172 165 158 135 59 38 53 68 81 86 82 72 59 46 45 55 98 127 137 143 146 149 151 151 152 151 148 151 147 139 134 128 129 135 134 132 132 131 131 133 128
204 221 218 221 197 185 183 182 193 192 198 210 158 57 67 71 74 73 69 64 55 34 28 14 33 108 131 140 148 153 158 162 162 159 159 154 143 137 135 136 136 139 143 142 140 145 147 142 134
198 217 230 244 226 203 202 184 161 180 215 47 66 91 86 81 73 54 35 21 23 23 13 8 4 27 129 146 154 155 159 160 162 166 162 156 147 147 147 151 152 154 157 154 155 155 149 143 144
212 210 209 179 119 139 154 178 172 147 31 55 68 69 64 63 43 29 13 17 14 9 358 352 354 7 25 142 155 165 166 168 166 169 168 164 158 158 155 157 159 159 156 159 158 156 152 149 146
190 190 204 257 220 216 191 183 186 197 44 81 73 60 47 37 16 5 360 359 354 348 338 335 345 355 352 343 171 174 172 173 173 171 178 172 170 165 164 162 162 162 164 163 164 161 156 153 151
197 199 198 241 233 207 202 191 201 228 132 90 69 50 34 25 16 4 347 343 339 333 326 326 325 340 341 322 225 186 183 183 180 183 186 182 175 173 170 170 169 165 168 165 161 159 155 152 153
207 209 215 222 250 230 228 217 151 60 129 100 65 34 28 24 18 8 355 344 340 336 330 324 325 330 330 314 283 222 200 195 191 190 192 192 184 179 174 175 174 170 170 170 164 165 165 164 168
199 218 224 228 229 228 220 219 133 43 114 90 56 33 27 22 16 8 2 353 343 336 329 323 324 326 320 312 303 286 219 211 205 192 193 196 193 188 182 180 177 174 173 173 169 175 178 174 173
235 235 226 231 226 225 212 213 162 84 90 77 48 32 27 23 14 6 4 2 356 345 338 327 329 332 327 315 297 338 303 268 243 206 205 196 197 193 187 184 181 177 177 177 178 179 177 178 171
239 240 246 246 215 214 211 219 184 110 91 67 45 33 23 17 11 10 10 7 4 2 356 341 336 335 332 321 274 239 244 246 248 240 243 211 201 199 192 187 186 187 188 188 185 178 176 176 171
234 236 259 253 230 229 218 228 171 119 86 71 50 29 14 7 6 7 8 8 5 2 357 351 341 330 323 316 285 251 246 241 256 279 262 240 210 204 201 196 194 193 193 191 189 182 184 184 191
243 242 258 260 280 206 213 222 183 119 91 62 43 27 16 9 2 360 1 3 2 1 355 346 344 336 323 317 302 287 254 252 255 261 259 265 239 216 213 206 203 199 196 196 196 192 192 193 201
259 266 259 245 231 229 217 238 188 174 131 39 23 16 8 3 359 358 356 356 357 354 351 346 342 344 332 320 299 258 236 240 252 253 257 254 239 224 223 218 209 205 203 203 203 203 201 198 201
278 287 245 230 227 250 226 235 209 160 201 350 2 1 357 356 354 353 352 350 351 351 351 349 345 347 339 326 300 265 261 261 253 247 252 253 240 229 229 230 221 215 211 210 208 208 208 208 210
309 249 187 195 210 233 240 229 240 155 268 321 341 350 350 351 352 352 351 353 353 352 352 352 349 346 338 333 322 293 277 268 262 251 243 249 250 246 255 249 233 226 221 214 212 210 212 213 216
359 227 224 222 228 245 237 233 240 46 5 337 334 342 349 350 351 350 352 353 350 349 350 348 348 344 337 334 326 311 300 280 259 252 247 251 257 254 255 257 249 235 231 223 215 213 213 214 216
349 313 264 257 258 288 312 246 110 59 20 3 349 347 351 352 349 346 347 347 346 344 344 344 344 342 335 334 334 322 309 292 279 270 260 250 255 256 264 260 249 247 235 226 219 217 218 218 220
2 36 351 287 289 273 267 272 241 208 354 355 352 352 351 348 344 342 343 343 342 341 340 337 337 337 335 335 333 322 318 312 296 290 280 261 262 266 260 260 250 250 245 230 221 222 223 221 223
17 32 226 234 263 268 274 256 243 267 311 332 341 341 339 341 341 340 339 338 336 336 335 336 338 333 330 334 334 324 320 310 297 294 291 287 274 271 264 257 249 243 247 237 226 227 226 224 223
24 38 347 256 293 263 268 276 54 248 286 314 326 329 331 334 336 335 334 333 333 336 336 337 339 335 333 334 331 327 321 313 300 288 288 289 285 269 262 258 246 239 240 236 228 228 224 224 224
5 340 273 262 258 251 267 282 69 321 312 318 322 325 328 330 333 334 333 334 336 336 335 336 335 332 331 330 324 323 323 316 306 301 299 291 285 280 268 258 247 244 242 237 229 230 226 224 226
Height
1517 1518 1520 1523 1522 1518 1514 1513 1514 1516 1518 1521 1522 1521 1520 1521 1522 1528 1529 1526 1526 1528 1530 1532 1534 1536 1538 1540 1542 1543 1544 1545 1546 1547 1548 1549 1550 1550 1551 1552 1552 1552 1553 1553 1554 1554 1555 1555 1555
1517 1519 1522 1522 1516 1514 1512 1512 1515 1517 1519 1521 1522 1522 1522 1524 1526 1527 1525 1526 1527 1528 1530 1532 1534 1537 1539 1540 1542 1544 1545 1546 1547 1548 1549 1550 1551 1551 1552 1553 1553 1554 1554 1554 1555 1555 1556 1556 1557
1517 1519 1522 1518 1512 1508 1509 1512 1515 1518 1521 1521 1522 1523 1524 1526 1527 1527 1526 1526 1527 1529 1530 1532 1535 1537 1539 1541 1542 1544 1545 1547 1548 1549 1550 1551 1552 1552 1553 1554 1554 1555 1555 1556 1556 1557 1557 1558 1558
1518 1521 1521 1516 1510 1509 1510 1514 1517 1518 1520 1521 1522 1524 1526 1528 1527 1527 1526 1526 1528 1529 1531 1532 1535 1537 1539 1541 1542 1544 1545 1547 1548 1549 1550 1551 1552 1553 1554 1554 1555 1556 1556 1557 1558 1558 1559 1559 1559
1518 1518 1515 1511 1508 1510 1514 1517 1519 1517 1519 1521 1522 1523 1526 1527 1526 1526 1526 1527 1528 1530 1531 1533 1535 1537 1539 1541 1542 1544 1545 1547 1548 1549 1551 1552 1553 1554 1554 1555 1556 1557 1557 1558 1559 1559 1560 1560 1561
1518 1515 1510 1505 1505 1511 1516 1519 1519 1518 1519 1522 1523 1523 1526 1526 1525 1526 1526 1528 1529 1530 1532 1533 1535 1537 1539 1541 1542 1544 1545 1547 1548 1550 1551 1552 1553 1554 1555 1556 1556 1557 1558 1559 1560 1560 1561 1562 1562
1516 1511 1505 1503 1506 1510 1516 1519 1520 1519 1520 1523 1523 1524 1525 1526 1525 1526 1527 1528 1530 1531 1532 1533 1535 1537 1538 1540 1542 1544 1545 1547 1548 1550 1551 1552 1553 1554 1555 1556 1557 1558 1559 1559 1560 1561 1562 1562 1563
1514 1512 1507 1506 1506 1510 1517 1519 1521 1521 1521 1524 1525 1525 1526 1526 1526 1526 1527 1529 1530 1531 1532 1533 1535 1536 1538 1540 1542 1544 1545 1547 1548 1549 1551 1552 1553 1554 1555 1556 1557 1558 1559 1560 1561 1562 1562 1563 1564
1514 1513 1504 1506 1508 1511 1517 1519 1521 1523 1523 1524 1525 1527 1527 1526 1526 1526 1527 1528 1529 1530 1531 1533 1534 1536 1537 1539 1541 1543 1545 1546 1548 1549 1550 1552 1553 1554 1555 1556 1557 1558 1559 1560 1561 1562 1563 1563 1564
1513 1508 1506 1511 1512 1514 1518 1519 1521 1522 1523 1525 1526 1526 1526 1525 1525 1525 1525 1526 1527 1528 1530 1532 1533 1535 1537 1538 1540 1542 1544 1545 1547 1548 1550 1551 1552 1553 1554 1555 1557 1558 1559 1560 1561 1562 1563 1564 1564
1513 1510 1512 1515 1516 1517 1518 1520 1521 1521 1522 1525 1526 1526 1525 1525 1525 1525 1525 1526 1526 1528 1529 1530 1532 1534 1535 1537 1539 1541 1542 1544 1546 1547 1548 1550 1551 1552 1553 1555 1556 1557 1558 1559 1561 1562 1563 1564 1564
1514 1515 1516 1517 1518 1518 1519 1520 1522 1522 1525 1526 1526 1525 1525 1524 1524 1524 1525 1525 1526 1527 1528 1529 1530 1532 1534 1536 1537 1539 1541 1542 1544 1545 1547 1548 1549 1551 1552 1553 1555 1556 1557 1559 1560 1561 1562 1563 1564
1514 1515 1518 1519 1518 1519 1520 1521 1522 1524 1525 1525 1525 1525 1524 1524 1525 1525 1525 1525 1525 1526 1526 1527 1528 1530 1532 1533 1535 1537 1539 1540 1542 1544 1545 1546 1548 1549 1550 1552 1553 1555 1556 1558 1559 1560 1561 1562 1563
1514 1516 1517 1518 1518 1519 1519 1521 1522 1524 1525 1525 1525 1524 1524 1524 1524 1524 1524 1524 1524 1524 1525 1526 1526 1528 1530 1531 1533 1535 1536 1538 1540 1542 1543 1545 1546 1548 1549 1550 1552 1553 1555 1556 1558 1559 1560 1561 1562
1515 1515 1516 1517 1517 1518 1518 1519 1522 1524 1524 1524 1524 1524 1524 1523 1523 1523 1522 1522 1522 1523 1524 1524 1525 1526 1527 1529 1531 1532 1534 1536 1537 1539 1541 1542 1544 1545 1547 1549 1550 1551 1553 1554 1556 1557 1559 1560 1561
1513 1511 1511 1516 1517 1517 1518 1514 1523 1524 1524 1524 1524 1524 1524 1523 1522 1522 1522 1521 1521 1521 1521 1522 1523 1524 1525 1526 1528 1530 1531 1533 1535 1536 1538 1540 1541 1543 1545 1546 1548 1549 1551 1552 1554 1556 1557 1558 1560
1510 1508 1508 1513 1516 1516 1515 1516 1523 1524 1524 1524 1524 1524 1523 1523 1522 1521 1521 1520 1520 1519 1519 1520 1521 1522 1523 1524 1526 1527 1528 1530 1532 1533 1535 1536 1538 1541 1542 1544 1545 1547 1549 1550 1552 1554 1555 1557 1558
1508 1508 1509 1510 1514 1516 1516 1518 1522 1524 1524 1524 1524 1524 1524 1522 1522 1520 1519 1518 1518 1518 1517 1518 1519 1520 1520 1521 1522 1524 1525 1527 1528 1530 1532 1533 1535 1538 1540 1541 1543 1545 1546 1548 1550 1551 1553 1555 1556
1512 1511 1509 1511 1515 1516 1515 1518 1522 1524 1524 1524 1525 1525 1524 1523 1522 1520 1518 1517 1516 1516 1515 1516 1516 1517 1517 1518 1519 1520 1521 1523 1524 1525 1528 1529 1531 1534 1536 1538 1540 1542 1543 1545 1547 1549 1550 1552 1554
1513 1511 1511 1514 1516 1516 1516 1518 1521 1524 1525 1526 1526 1526 1525 1523 1522 1519 1518 1516 1515 1514 1514 1513 1514 1514 1515 1515 1516 1517 1518 1519 1521 1522 1523 1526 1527 1530 1532 1535 1537 1538 1540 1542 1544 1546 1547 1549 1551
1513 1512 1513 1514 1515 1515 1516 1514 1520 1524 1527 1528 1527 1526 1525 1523 1522 1520 1517 1515 1514 1512 1512 1511 1511 1512 1512 1513 1514 1515 1516 1517 1518 1519 1520 1521 1524 1526 1528 1531 1533 1535 1537 1538 1540 1542 1544 1546 1548
1513 1514 1515 1515 1513 1510 1513 1507 1515 1522 1525 1527 1527 1526 1525 1524 1522 1520 1518 1515 1513 1511 1510 1510 1509 1509 1509 1510 1510 1511 1511 1512 1513 1514 1516 1518 1520 1521 1524 1526 1529 1531 1533 1535 1537 1539 1541 1543 1544
1516 1516 1515 1514 1513 1514 1514 1512 1511 1522 1524 1526 1527 1527 1525 1524 1522 1520 1518 1515 1512 1511 1509 1508 1507 1506 1507 1507 1507 1507 1508 1509 1510 1511 1513 1514 1515 1518 1520 1522 1524 1527 1529 1531 1533 1535 1537 1539 1540
1520 1516 1515 1514 1512 1513 1515 1512 1509 1521 1525 1526 1527 1527 1525 1523 1521 1519 1517 1514 1512 1510 1508 1506 1505 1505 1504 1504 1504 1504 1505 1506 1506 1507 1509 1510 1511 1513 1515 1517 1519 1522 1524 1526 1528 1530 1532 1534 1536
1521 1514 1508 1507 1507 1507 1519 1516 1519 1526 1529 1528 1528 1527 1525 1523 1520 1518 1515 1512 1510 1508 1506 1505 1504 1502 1502 1501 1501 1500 1501 1502 1503 1503 1505 1506 1507 1509 1511 1513 1515 1517 1519 1521 1523 1525 1527 1529 1531
1525 1520 1515 1510 1504 1506 1520 1517 1523 1530 1530 1530 1529 1527 1525 1523 1520 1518 1515 1512 1510 1507 1505 1503 1502 1501 1500 1499 1498 1498 1498 1498 1499 1500 1502 1502 1503 1505 1506 1508 1510 1512 1514 1516 1518 1520 1522 1524 1526
1527 1525 1529 1524 1522 1521 1516 1522 1526 1528 1529 1529 1528 1526 1524 1522 1520 1517 1514 1511 1509 1506 1504 1502 1501 1499 1497 1496 1496 1495 1495 1495 1496 1497 1498 1499 1500 1501 1502 1503 1505 1507 1509 1511 1512 1515 1517 1519 1521
1535 1533 1529 1523 1517 1512 1513 1516 1517 1527 1528 1528 1528 1526 1524 1521 1519 1516 1513 1510 1507 1505 1503 1501 1499 1497 1495 1494 1493 1493 1492 1492 1493 1493 1494 1495 1495 1497 1498 1499 1500 1502 1504 1506 1507 1509 1511 1513 1515
1538 1537 1534 1528 1525 1517 1512 1514 1524 1527 1528 1528 1528 1526 1524 1521 1518 1515 1512 1508 1506 1503 1501 1498 1496 1495 1493 1491 1490 1490 1489 1489 1489 1490 1490 1490 1491 1492 1493 1494 1496 1497 1499 1500 1501 1504 1506 1507 1509
1542 1541 1537 1528 1529 1528 1519 1523 1528 1529 1529 1529 1527 1525 1523 1520 1517 1514 1511 1507 1504 1501 1499 1496 1494 1492 1491 1489 1488 1487 1487 1486 1486 1486 1486 1487 1487 1488 1488 1490 1491 1493 1494 1494 1496 1498 1500 1501 1503